RH
24 24 25 27 30 32 34 36 39 42 40 40 45 47 48 49 49 49 50 48 47 45 44 42 40 38 37 38 41 45 48 49 50 53 54 56 53 51 67 73 54 49 58 46 27 23 21 19 17 14 16 17 18 25 27 20 21 28 34 46 59 65 67 73 75 72 75 72 65 69 69 65 62 53 63 82 71 60 64 61 58 59 65 77 78
24 23 23 24 26 28 30 32 35 37 38 39 42 43 44 46 47 49 51 51 50 50 49 47 44 42 40 40 40 42 46 49 50 52 51 52 53 48 53 60 44 34 43 38 24 23 21 19 19 14 14 17 16 20 26 24 21 23 28 38 58 71 64 65 77 77 74 73 69 73 66 57 66 65 60 76 81 73 72 70 65 64 68 74 76
26 23 22 22 22 23 26 28 30 32 34 35 37 38 40 41 42 44 47 49 50 50 51 51 49 45 43 42 42 41 44 47 49 53 53 50 51 50 48 48 39 30 33 29 23 23 21 19 20 17 15 17 16 19 24 26 23 24 29 30 45 71 72 58 67 78 79 78 75 79 75 61 65 69 61 67 75 72 72 74 70 68 70 68 65
35 28 24 23 23 22 24 25 26 27 28 30 32 33 35 36 37 38 41 45 48 49 50 53 52 50 47 45 45 43 42 44 47 53 57 52 49 51 50 47 41 34 31 30 27 26 24 21 20 19 17 16 16 19 20 23 23 21 27 27 28 55 75 63 53 62 76 83 79 78 80 75 70 68 63 64 69 67 68 69 67 69 72 69 67
43 34 25 25 27 26 25 26 26 27 27 28 30 31 33 35 36 36 38 41 45 47 48 51 53 53 51 49 48 46 44 44 44 49 55 54 48 50 52 48 44 38 34 33 32 31 31 30 26 22 19 17 18 19 18 20 22 20 24 28 24 33 57 64 53 51 62 76 83 81 75 71 68 63 58 63 71 70 68 68 67 67 67 67 76
46 41 31 28 28 27 26 27 28 29 30 31 34 33 33 36 38 36 35 38 42 46 47 49 51 53 54 53 52 51 49 46 45 45 51 53 48 48 54 52 46 42 38 36 34 35 37 38 37 32 23 19 18 19 19 19 21 23 22 25 27 26 37 51 53 51 55 64 76 80 71 65 68 68 59 56 65 77 84 84 79 74 71 70 76
48 46 40 36 32 27 24 25 26 28 30 32 35 36 34 37 41 39 36 36 39 44 46 47 48 51 53 54 55 56 55 52 50 46 48 53 48 46 52 54 49 45 40 37 35 36 38 40 42 39 29 22 20 19 20 20 20 23 22 23 26 26 31 43 49 52 60 66 71 77 79 74 72 77 72 59 59 71 80 85 87 89 90 85 77
50 47 44 42 36 28 25 25 24 26 28 30 32 34 34 36 40 43 41 38 38 41 43 44 46 48 52 54 54 57 58 57 56 51 50 54 49 42 48 54 53 49 43 39 37 35 38 40 41 41 32 24 23 22 20 20 20 22 23 23 25 25 32 45 53 59 69 77 77 79 84 81 74 78 78 63 57 65 73 80 85 84 87 89 81
50 47 45 41 34 31 31 30 28 27 29 30 30 31 33 35 39 45 46 40 37 40 42 43 45 46 49 53 54 56 59 59 58 56 54 53 46 39 43 50 54 53 47 42 38 36 38 40 40 41 35 26 24 26 24 20 19 23 23 23 25 25 30 44 56 66 77 83 83 81 83 84 80 82 83 71 67 78 84 84 80 75 76 80 81
49 46 44 40 36 37 37 35 32 30 29 30 29 30 34 35 37 43 46 43 40 40 42 43 45 47 48 51 53 55 57 59 58 55 50 46 40 37 39 43 50 56 52 45 41 38 39 40 39 40 38 33 28 29 32 25 19 23 25 23 25 25 26 36 50 67 81 83 82 81 82 84 83 84 88 85 84 90 91 85 78 76 75 75 81
50 46 43 41 41 41 37 34 33 31 30 31 32 32 34 36 39 42 45 46 44 42 43 45 46 48 49 50 53 54 56 57 58 54 49 45 39 36 38 40 44 52 53 49 43 40 41 41 42 43 42 40 36 35 39 36 26 26 27 23 22 25 27 32 42 62 79 81 80 81 79 81 83 85 87 87 88 91 93 90 81 76 80 82 85
48 44 44 45 43 38 34 33 33 32 33 34 35 35 36 38 40 41 45 48 49 47 47 47 47 50 53 52 51 54 55 55 55 53 50 47 41 36 38 39 41 46 51 51 45 41 42 43 44 46 45 42 41 40 42 43 38 36 36 28 21 21 26 31 41 60 76 79 78 79 77 79 83 85 83 82 87 92 93 91 79 70 75 80 78
47 45 46 48 44 38 36 34 33 33 35 37 39 39 39 40 40 42 46 49 54 55 53 53 52 51 56 59 53 51 55 55 55 53 50 48 43 36 36 37 39 43 47 49 48 44 43 44 45 47 47 45 45 45 46 47 47 48 52 50 39 28 23 25 32 50 69 80 81 79 77 77 76 78 79 77 81 87 90 91 87 77 73 74 73
48 45 43 44 42 40 38 36 36 38 40 42 45 44 42 41 42 45 49 51 56 61 64 70 66 55 62 76 68 53 53 55 55 55 52 49 43 35 34 37 38 41 44 47 50 48 45 45 45 46 46 46 48 50 49 50 52 55 63 67 62 50 38 29 25 31 48 70 82 79 71 65 63 69 71 68 71 79 84 90 93 86 76 67 59
48 44 37 34 34 34 34 35 38 42 44 45 46 44 43 43 43 47 51 53 54 57 62 70 69 62 74 92 85 69 62 57 54 56 53 47 43 37 36 39 39 40 43 45 48 51 50 49 48 47 46 46 47 51 53 53 54 58 64 70 72 70 62 51 39 27 29 47 64 69 65 59 62 66 63 63 72 75 75 79 78 69 57 49 48
45 43 35 28 27 27 29 31 34 38 41 43 43 42 40 39 40 45 50 53 54 56 57 59 64 76 89 91 83 82 79 63 54 57 51 42 40 38 37 40 40 40 42 44 46 50 53 53 52 51 50 47 46 49 54 58 58 61 67 72 76 77 75 71 59 38 29 41 57 68 73 70 67 66 63 67 77 75 70 67 59 50 47 48 57
37 36 30 25 25 26 27 28 31 33 36 37 37 36 36 36 40 45 48 53 56 57 58 58 62 76 86 79 73 82 85 69 58 56 49 40 38 38 37 39 41 41 41 41 44 50 55 55 55 55 54 52 49 49 54 61 65 66 72 77 81 83 83 84 76 51 35 44 56 63 73 75 67 66 70 75 78 75 69 65 60 60 66 68 70
30 29 27 27 27 29 30 30 31 32 32 33 32 33 36 39 43 45 47 52 56 60 66 69 65 69 78 82 82 83 80 74 68 60 50 43 39 37 38 38 39 42 42 40 43 51 56 55 53 56 58 55 52 53 57 64 69 72 78 87 93 95 91 89 88 66 42 47 60 63 70 76 72 73 79 80 79 73 63 61 64 68 70 70 66
27 29 30 33 33 33 35 34 32 32 31 32 33 35 38 41 43 45 46 50 57 66 76 82 80 76 78 86 93 91 85 84 81 70 58 50 42 38 39 39 40 42 40 39 44 51 57 58 53 52 60 61 57 58 62 67 72 77 86 96 99 98 94 93 96 82 54 50 64 67 70 77 79 81 84 80 78 70 54 50 59 64 62 60 59
32 34 34 34 35 34 34 32 30 32 33 35 37 38 40 44 47 49 52 57 63 70 75 81 85 84 81 83 89 92 92 93 91 81 69 60 52 46 42 38 38 40 40 42 47 49 57 67 61 50 55 63 61 61 64 69 75 80 90 99 99 98 96 93 99 94 69 54 59 63 70 80 83 84 85 79 72 63 49 45 54 59 58 57 58
35 33 33 33 33 32 31 29 30 32 35 38 41 42 45 50 52 54 60 69 74 76 76 79 84 85 83 83 84 87 91 94 94 90 82 71 61 56 52 42 34 36 41 45 48 45 51 66 67 55 50 57 63 65 65 71 79 84 90 96 98 98 95 91 96 94 75 64 70 78 85 90 88 86 84 76 65 54 45 46 53 57 59 59 60
38 32 32 32 33 32 32 32 35 37 40 42 44 46 52 56 57 58 65 75 79 76 74 79 85 84 80 80 82 85 88 90 92 94 90 78 65 59 58 51 40 38 42 46 47 44 44 54 65 60 49 49 59 65 67 73 83 87 90 93 95 97 96 93 95 90 78 78 87 95 98 96 93 90 82 70 61 53 50 54 56 58 63 65 63
46 39 35 35 37 39 38 38 39 40 42 44 46 48 50 54 59 62 66 76 83 81 78 81 85 85 82 82 84 85 86 89 91 94 94 88 77 68 65 63 56 47 45 46 46 42 39 46 61 61 48 44 55 63 68 77 84 89 92 93 94 98 97 92 91 88 85 88 92 95 97 93 89 87 76 64 63 63 64 67 63 58 61 62 59
51 44 41 41 43 45 47 46 45 44 45 47 50 51 50 52 59 63 65 74 84 89 88 87 87 86 85 84 84 84 86 89 92 93 91 90 89 85 81 80 76 64 55 52 51 46 40 43 58 61 48 41 50 62 71 79 84 90 94 93 95 99 94 87 89 90 88 90 92 93 94 90 85 79 67 62 68 67 64 68 65 59 60 61 57
49 46 45 45 46 49 52 51 48 47 49 52 54 54 55 58 62 63 67 78 87 90 89 88 88 88 87 86 85 85 85 86 91 93 89 85 85 81 76 75 78 78 73 67 66 65 57 52 60 64 51 42 50 65 75 81 86 92 95 95 98 99 90 85 93 97 92 92 94 94 92 89 83 73 61 60 66 63 57 60 61 58 59 59 57
47 46 48 49 48 51 56 59 59 56 55 59 61 59 59 63 66 67 75 85 89 87 87 87 85 85 88 87 87 88 88 87 90 92 91 91 88 78 68 64 66 76 87 87 83 83 80 74 75 70 53 43 53 68 77 84 90 95 98 98 98 96 89 85 92 97 96 95 97 94 89 86 80 68 58 55 57 56 54 55 58 63 65 63 63
49 48 52 58 60 62 66 72 76 75 73 74 77 75 74 76 77 79 84 88 87 86 88 86 83 83 86 87 87 88 89 89 91 92 92 94 92 84 77 72 69 75 86 92 93 95 93 91 91 81 61 53 63 74 82 89 94 96 98 97 95 93 88 83 87 94 96 96 95 90 84 81 75 65 56 51 52 55 55 55 62 73 75 73 73
68 64 63 69 73 75 77 80 81 81 82 83 83 81 82 84 85 86 88 88 87 86 85 84 83 82 82 84 85 86 88 88 88 89 86 83 86 89 89 88 87 81 74 74 86 96 97 97 99 92 79 74 79 84 90 96 97 98 98 95 93 94 92 88 91 96 97 95 91 84 79 78 70 58 52 51 56 61 59 58 68 77 76 74 75
92 91 85 82 82 82 83 83 81 81 82 82 80 79 80 82 83 85 87 86 85 84 80 80 81 81 81 84 85 86 89 88 85 87 87 84 87 90 87 86 86 77 66 69 86 99 99 99 100 96 90 87 87 91 97 99 99 98 97 93 92 94 95 95 97 95 92 92 89 83 79 75 63 53 53 57 65 72 67 60 64 71 69 69 71
96 95 89 87 86 85 85 84 83 84 83 82 82 81 82 83 84 84 85 85 87 89 87 83 79 75 75 79 82 83 85 83 83 87 88 85 83 81 78 79 78 72 70 82 96 100 99 100 99 94 89 88 91 96 100 100 99 98 96 95 94 95 97 98 95 87 83 86 87 84 81 72 58 54 61 68 75 81 75 62 59 62 64 67 70
86 77 71 72 72 73 80 86 91 93 92 88 87 86 84 84 84 84 86 86 86 89 92 90 87 82 79 79 82 83 83 81 83 86 86 84 83 81 79 81 82 80 83 93 99 99 99 101 99 94 89 88 92 98 100 98 97 96 94 93 94 96 97 95 88 81 81 85 88 87 80 67 58 60 68 73 78 81 77 70 65 62 63 68 69
60 54 52 52 53 60 72 81 89 96 99 98 97 95 93 92 89 89 93 94 91 89 91 93 93 92 89 88 89 88 87 86 88 91 92 91 90 88 86 87 88 88 92 97 99 98 98 99 100 98 94 92 94 98 100 98 95 94 93 90 90 94 94 87 81 82 86 89 90 86 73 62 63 68 70 72 76 76 75 76 73 68 67 69 66
45 46 49 48 47 51 60 65 70 78 84 86 86 88 89 89 87 85 85 85 84 84 86 89 93 94 94 95 95 93 91 91 92 93 95 97 97 95 94 93 92 94 96 98 99 99 99 99 100 99 98 97 98 99 98 95 92 92 90 85 84 88 87 82 81 86 91 92 89 80 67 62 68 73 72 73 75 71 70 75 77 72 69 68 65
53 52 59 64 60 53 52 53 52 53 54 54 55 60 63 63 63 63 61 57 55 55 57 61 67 72 75 77 80 84 86 89 91 93 95 97 99 99 98 96 96 97 99 98 99 99 99 99 99 99 99 99 100 99 96 93 92 91 87 82 83 86 87 86 85 86 92 94 86 74 66 66 70 73 73 73 72 68 67 72 74 70 68 67 64
71 60 60 67 65 54 47 44 39 37 38 38 38 41 44 43 43 43 42 41 40 39 38 39 40 43 46 47 48 53 60 68 77 86 92 97 100 99 98 99 99 99 99 99 99 99 99 99 99 99 100 99 99 97 95 93 91 88 83 83 85 86 88 88 83 83 91 92 80 70 69 69 70 73 73 70 68 67 67 69 68 65 66 67 61
87 79 71 69 63 52 45 43 41 38 37 36 35 36 37 38 39 40 39 39 39 38 37 38 38 37 38 38 37 38 41 45 51 61 72 84 95 100 100 99 100 99 99 99 100 99 99 99 98 98 98 98 98 96 94 93 92 88 82 79 79 81 84 81 76 82 93 88 74 69 71 70 71 75 71 66 66 69 68 66 63 61 64 63 57
70 68 63 66 71 67 54 45 44 44 41 39 39 39 40 42 42 43 44 42 40 40 40 39 38 37 37 39 40 39 39 40 41 43 47 57 75 91 98 99 100 100 98 99 101 100 99 98 99 99 99 99 99 96 92 90 90 86 82 81 82 84 85 77 69 76 85 81 72 73 73 71 75 76 68 62 66 69 67 63 61 60 60 58 53
62 56 50 56 76 88 76 57 50 49 46 45 43 43 50 55 52 49 50 47 41 43 44 41 39 41 41 42 42 41 40 40 40 41 43 51 66 83 95 98 99 99 99 100 100 98 97 99 100 99 99 99 95 88 83 83 85 84 83 84 84 83 79 72 67 71 76 76 75 75 72 71 75 74 67 64 67 66 63 61 59 57 57 54 50
75 70 61 57 72 91 92 82 73 63 56 57 56 53 57 63 61 59 63 59 49 45 46 44 42 43 44 45 46 44 43 46 48 51 55 60 69 83 94 99 99 99 100 100 99 98 99 100 99 99 101 98 90 82 79 79 82 86 87 87 84 79 75 72 71 72 75 78 80 76 71 72 76 72 67 66 65 62 61 60 56 53 54 54 52
85 85 81 77 81 89 91 90 89 80 71 72 73 68 64 62 60 63 69 65 54 48 47 46 46 46 48 51 51 51 56 62 65 66 67 68 74 86 95 98 100 100 99 100 101 100 99 98 99 101 101 95 89 86 84 80 80 87 91 89 83 78 73 72 72 72 74 79 83 78 73 75 77 73 67 64 62 60 60 59 55 52 51 52 52
95 96 94 90 87 86 85 90 95 94 89 86 83 79 76 71 69 71 70 63 56 52 50 50 49 49 52 55 56 63 76 83 80 77 78 81 88 94 92 88 93 99 100 99 99 99 100 102 101 95 90 88 88 89 87 83 83 89 91 86 79 74 71 70 70 70 72 79 83 78 73 73 72 68 65 63 60 59 59 58 56 54 52 49 48
99 100 99 98 94 90 90 95 99 98 98 95 90 86 84 81 80 82 77 68 61 57 55 55 55 53 54 57 58 68 83 87 81 81 86 88 92 95 90 85 89 97 100 101 102 101 99 95 85 76 76 81 84 84 83 83 84 86 85 80 75 72 70 68 67 65 67 72 75 71 69 69 66 63 63 62 58 56 58 58 56 54 52 51 50
100 98 98 99 99 97 96 98 98 98 99 97 93 92 91 84 81 81 80 76 74 71 67 66 63 57 56 59 62 69 78 78 73 76 80 77 75 80 86 91 97 99 98 98 98 95 88 79 72 72 75 75 74 75 76 78 81 82 79 75 72 70 68 65 63 61 61 65 66 65 64 63 60 59 60 60 58 58 59 59 56 54 52 51 52
100 99 97 95 96 98 100 99 99 100 100 95 92 95 96 90 82 79 76 75 78 80 82 83 81 75 74 74 70 69 74 75 75 77 78 72 66 63 64 71 80 83 80 77 77 77 76 73 73 75 76 73 74 79 82 82 81 77 70 66 67 68 65 61 58 56 58 62 63 61 59 58 57 57 60 61 60 60 61 59 58 56 53 51 53
93 94 94 93 94 98 99 98 98 100 98 93 90 93 96 94 91 87 82 78 78 80 83 87 89 92 95 94 83 73 71 74 78 80 79 78 77 72 65 64 69 71 71 74 78 81 81 79 78 80 83 84 86 88 87 83 74 63 56 57 61 62 60 57 54 55 58 62 60 57 57 59 59 58 61 63 62 60 60 60 59 58 56 54 54
88 88 89 91 94 96 97 98 99 100 98 97 95 95 96 97 97 94 91 89 89 88 88 87 87 90 94 96 93 88 82 79 80 81 81 82 85 85 81 79 81 80 80 82 86 87 87 85 84 85 89 92 92 88 80 71 62 55 56 59 61 58 56 55 55 57 60 60 58 56 59 63 63 61 61 63 63 61 60 60 60 60 59 56 54
85 85 85 85 87 90 92 94 96 97 98 99 99 99 99 100 99 98 95 93 92 93 94 94 92 91 91 92 93 94 91 84 82 85 86 86 87 86 84 84 87 89 88 88 89 89 89 89 88 89 90 89 83 74 65 59 59 61 65 65 62 59 58 57 58 60 60 58 58 61 62 64 64 63 63 63 62 62 63 61 59 60 61 58 55
86 87 87 85 83 83 86 89 92 93 95 97 98 98 99 99 99 99 99 96 94 95 98 99 97 96 95 92 90 91 90 87 87 91 92 90 89 89 87 87 89 92 94 94 93 92 92 92 90 86 81 74 65 58 57 61 64 66 67 66 62 60 60 60 61 61 59 58 61 64 65 64 64 64 65 66 63 63 64 62 59 59 61 59 55
80 83 86 88 88 88 90 91 90 90 93 97 99 99 99 99 100 100 100 100 98 98 99 100 98 97 97 95 92 91 90 89 89 93 93 88 86 86 87 86 87 89 91 92 92 92 94 92 85 74 65 59 54 53 58 62 64 64 66 65 63 62 63 63 62 60 59 61 65 67 68 68 67 67 69 71 68 66 65 63 60 59 59 57 55
70 73 78 82 84 87 91 93 92 91 91 93 95 95 96 98 99 97 95 95 96 96 97 98 99 99 99 98 95 93 92 93 95 96 91 83 82 87 88 85 82 80 80 80 81 81 81 80 73 65 58 56 56 58 61 63 64 66 66 64 63 65 66 63 61 60 61 65 70 72 71 72 71 70 71 73 71 69 66 63 61 60 57 54 54
62 64 68 71 75 79 83 87 91 93 92 89 88 88 89 91 91 88 82 81 84 88 91 95 98 99 99 100 99 97 94 94 98 98 90 83 84 88 86 79 75 73 70 68 67 67 68 69 69 66 62 61 61 63 64 64 64 65 65 64 65 67 65 63 63 63 64 68 73 75 74 74 74 73 72 71 69 67 65 62 60 59 56 52 52
Wind_Speed
47 49 49 49 49 49 48 48 47 45 44 42 41 40 39 38 36 34 33 32 32 32 31 31 32 31 31 30 30 29 28 27 26 25 25 24 24 24 20 19 21 21 18 19 22 22 21 20 20 19 18 17 16 15 14 13 12 12 13 13 13 13 13 12 10 9 8 8 7 7 8 7 7 8 7 9 9 7 8 9 10 10 9 7 10
48 49 49 49 49 50 49 48 47 47 45 43 42 42 40 39 37 36 35 34 33 33 32 32 33 33 32 32 32 31 30 30 28 26 27 26 25 26 24 23 24 25 23 23 24 24 23 22 21 21 20 20 18 17 16 15 13 13 13 13 13 14 13 12 11 10 9 9 8 8 9 8 7 9 8 9 9 8 8 9 9 10 10 9 9
48 49 49 49 49 49 48 48 47 46 46 45 44 43 42 40 38 37 37 35 34 34 33 33 34 34 35 34 33 33 32 31 30 28 27 28 27 26 26 26 27 28 27 26 26 25 25 24 23 23 23 22 21 20 18 17 16 14 14 14 13 14 14 13 12 10 10 9 8 8 8 7 8 9 9 9 10 9 8 9 10 10 11 11 11
48 49 49 48 48 49 48 48 48 47 47 46 46 44 43 42 40 39 38 37 37 36 35 34 34 35 36 36 35 35 34 33 32 30 28 29 28 27 27 28 28 29 29 28 28 27 27 26 25 25 25 24 24 23 21 20 18 16 15 15 15 14 14 14 13 11 10 10 9 8 8 8 8 9 9 9 9 9 10 11 12 11 12 13 12
47 49 49 48 48 49 48 48 49 48 48 48 47 46 45 45 44 42 40 39 40 39 37 36 36 35 36 37 37 37 36 35 35 33 31 29 29 29 28 29 29 30 30 30 30 29 28 27 27 27 27 26 26 25 24 22 21 19 17 17 16 15 15 15 14 12 11 10 9 9 9 9 9 9 9 9 9 10 11 12 12 13 13 12 11
47 48 49 49 49 49 48 48 48 48 48 48 48 47 46 46 46 45 43 41 41 41 40 39 38 37 36 37 37 37 37 37 37 37 34 32 31 30 30 30 30 31 31 31 31 31 30 29 28 29 29 28 27 27 26 25 23 21 19 18 17 16 16 16 15 14 13 12 11 10 10 9 9 9 10 10 10 11 10 11 12 13 13 13 11
46 48 49 50 50 50 49 48 48 47 46 47 47 46 45 45 46 45 43 42 42 43 43 42 39 38 37 37 37 37 37 38 38 39 38 34 33 33 32 32 32 32 33 33 32 32 31 30 30 30 31 30 28 28 28 27 25 23 21 20 18 17 17 16 16 16 14 13 12 12 11 10 10 10 11 12 12 12 12 11 10 10 11 13 14
44 47 49 50 51 52 51 49 48 47 47 47 46 45 45 44 44 45 43 42 41 42 43 42 40 39 38 38 38 38 38 38 38 40 40 36 35 36 35 34 34 34 34 34 34 33 32 31 31 32 32 31 29 29 28 28 27 25 24 22 20 19 18 17 18 17 15 14 14 13 12 12 11 11 12 13 14 14 14 12 11 10 11 12 15
43 47 48 50 52 51 50 50 49 48 48 48 47 46 46 45 44 45 45 43 41 41 41 41 40 40 39 39 39 39 40 40 40 41 41 38 37 39 38 37 36 35 35 35 35 35 34 33 33 33 33 32 30 29 28 29 28 26 25 24 23 21 20 19 19 17 16 15 15 15 14 13 13 13 13 14 14 13 12 13 13 12 12 13 13
43 47 49 50 51 50 50 49 49 49 49 49 49 48 47 46 46 46 46 45 43 42 41 41 41 40 40 39 40 40 41 42 42 42 42 41 41 41 40 40 38 37 36 36 36 37 36 35 35 34 34 33 30 29 28 28 28 26 25 25 24 23 22 21 20 19 17 17 16 15 15 14 14 14 13 13 13 12 12 13 13 12 12 13 11
43 47 48 49 49 49 49 49 48 48 47 48 49 48 48 48 47 47 47 47 46 44 43 43 42 41 41 39 40 41 43 43 43 43 43 43 43 42 41 41 40 39 38 38 38 38 37 37 36 35 35 34 32 30 29 29 28 26 25 25 25 25 24 23 22 21 19 18 16 15 15 15 14 13 13 13 11 12 12 12 12 11 11 11 9
42 46 47 47 48 48 49 48 48 47 47 47 48 47 47 48 48 48 48 48 47 46 45 45 43 42 42 41 41 41 43 45 44 44 44 44 43 43 42 42 42 41 41 40 39 39 38 37 37 37 37 35 33 32 31 31 30 28 26 25 26 26 26 25 24 22 21 19 17 16 16 15 15 14 14 12 11 12 12 12 13 13 11 11 10
41 44 45 45 47 48 47 47 46 46 46 46 46 46 47 47 48 48 48 48 46 45 45 45 44 44 44 42 43 43 43 44 45 44 45 45 44 44 44 44 45 44 42 41 40 40 39 38 38 38 38 35 34 34 33 32 31 29 26 25 26 26 27 27 26 24 22 20 18 18 17 16 16 15 14 14 14 13 12 12 12 12 12 11 11
39 42 44 44 46 46 46 46 45 45 46 46 45 46 46 46 47 47 48 48 46 43 41 38 39 44 41 36 39 44 45 45 46 45 46 46 46 45 44 45 46 46 44 43 42 41 40 39 39 39 38 37 35 35 35 34 32 30 28 27 27 27 28 28 28 27 25 23 20 19 19 18 17 17 17 16 16 15 13 12 11 11 11 11 12
39 42 44 44 45 45 44 45 45 45 45 45 45 46 46 45 46 47 47 48 48 45 42 38 38 40 35 28 32 39 42 45 47 46 46 48 47 45 44 45 46 47 47 45 43 42 41 40 40 38 38 37 36 35 35 34 33 32 30 28 27 28 28 29 29 28 28 27 24 21 20 19 17 18 19 17 16 16 15 14 13 12 12 13 13
41 43 44 44 43 43 43 43 44 44 44 44 45 45 45 45 45 47 47 48 48 47 46 45 41 34 29 29 33 35 37 43 47 47 47 49 48 46 45 45 46 48 49 47 45 44 43 42 41 39 38 38 37 36 35 34 33 32 30 28 27 27 28 29 28 28 28 28 27 23 21 20 19 19 19 17 16 16 16 15 14 13 12 11 9
42 43 43 42 41 41 41 42 43 42 42 43 44 43 43 44 45 46 47 47 48 48 47 47 44 35 31 34 36 34 35 41 45 47 48 48 47 47 46 46 47 48 49 49 47 45 44 44 43 41 40 40 39 37 35 33 33 32 29 27 27 25 25 26 26 27 28 28 27 25 22 22 21 19 18 17 17 16 15 12 11 9 8 7 6
42 43 42 41 40 40 41 42 42 41 41 42 42 42 42 43 44 45 46 46 47 46 44 43 43 41 37 34 34 34 36 38 40 45 48 47 47 47 46 46 48 48 49 50 49 47 44 44 45 43 41 42 41 37 35 34 33 32 29 24 23 21 20 20 22 25 28 29 27 25 24 23 22 20 19 18 17 17 15 12 9 8 8 7 6
39 41 41 40 40 40 41 41 40 40 40 41 41 42 42 43 43 43 44 45 45 44 40 37 39 40 36 32 32 34 35 35 37 42 46 47 47 47 46 47 48 49 50 51 50 48 45 43 45 45 42 42 42 39 36 35 33 32 27 22 22 22 19 20 21 22 27 30 28 26 25 24 22 22 20 18 18 17 15 12 10 9 9 8 6
35 37 39 40 41 41 40 38 37 38 40 41 41 41 41 42 43 43 43 44 43 42 40 37 36 36 34 32 32 33 33 33 35 39 43 45 47 47 46 48 50 51 51 50 50 49 44 39 41 45 44 43 43 40 37 35 33 31 27 22 23 22 20 22 23 20 23 29 29 26 26 25 23 22 20 18 18 17 15 13 10 9 9 7 6
31 33 35 37 39 38 37 35 35 37 39 39 40 40 41 42 42 42 42 40 39 40 39 35 33 33 32 32 33 33 32 33 34 37 41 44 46 47 47 48 51 52 52 50 49 50 47 40 38 42 44 44 43 41 39 36 32 31 29 25 22 20 20 24 25 20 21 26 26 23 22 22 22 21 20 19 18 17 15 12 10 9 8 6 6
28 30 31 33 35 35 35 34 35 37 38 38 39 40 40 41 41 41 40 37 38 40 38 33 32 32 32 34 35 34 34 35 35 38 41 43 45 48 48 49 50 50 51 51 49 50 51 45 39 40 43 44 44 42 40 36 32 31 31 28 25 24 24 25 23 19 18 22 21 19 18 17 17 19 20 19 18 16 14 11 9 9 8 8 9
25 26 27 29 32 33 33 33 34 35 35 37 38 38 38 39 40 41 39 34 32 34 34 32 33 33 32 33 36 35 35 36 37 40 43 43 44 47 47 48 48 48 49 51 50 49 51 47 41 40 42 43 43 42 39 35 32 31 31 29 28 27 27 25 21 17 18 21 21 20 19 16 16 20 20 18 16 15 13 12 10 10 9 10 10
23 24 24 25 28 30 31 31 32 32 32 34 36 36 36 37 38 40 39 33 27 27 29 29 30 34 34 34 34 34 35 35 37 40 43 44 44 44 45 45 47 48 49 49 48 48 49 47 43 41 40 41 41 41 38 35 33 31 30 30 29 28 27 26 22 18 21 24 23 22 20 17 19 22 21 17 17 16 14 13 12 11 10 10 10
21 21 21 21 23 25 27 29 29 28 29 31 34 35 35 36 38 40 38 32 26 26 27 28 29 33 37 35 32 32 33 34 35 38 43 45 44 44 43 44 46 49 50 49 45 43 44 44 43 40 38 38 39 39 37 35 33 32 31 30 29 28 28 27 22 20 24 27 25 22 19 19 21 22 21 19 19 17 15 13 12 11 10 10 11
18 18 18 18 19 20 22 24 24 25 26 28 30 32 33 34 36 37 34 30 28 27 28 30 31 32 35 34 32 31 33 35 36 39 42 45 46 46 45 44 45 48 50 49 44 40 39 39 40 38 37 38 39 39 37 36 35 34 33 31 28 28 30 30 26 24 27 27 23 20 19 19 22 23 22 22 20 17 15 13 12 11 10 10 10
17 17 17 17 17 18 19 19 19 19 22 23 24 27 29 30 33 33 31 31 31 29 27 30 31 32 33 33 32 32 33 35 37 39 42 46 49 51 50 47 45 46 50 51 47 43 40 39 38 37 35 36 36 36 36 36 36 36 35 33 32 33 34 33 30 27 26 23 19 18 18 20 23 24 24 21 19 17 15 12 11 10 10 10 10
11 12 14 15 15 16 16 17 17 16 16 18 20 22 23 24 26 27 27 29 31 30 29 30 31 32 34 34 33 33 34 35 36 38 42 48 51 52 53 51 48 48 51 53 52 49 46 43 41 39 37 35 35 37 37 37 38 38 37 36 36 37 35 32 30 27 24 21 19 19 20 24 26 26 23 20 18 17 15 13 12 12 11 11 11
6 7 8 10 11 12 12 13 15 15 15 16 18 20 22 23 24 25 25 25 27 29 30 31 31 31 32 32 33 34 36 38 38 39 42 47 50 50 52 52 51 52 53 54 54 53 51 49 46 44 43 42 41 41 40 39 39 39 38 38 39 38 34 33 33 29 25 22 22 23 25 28 28 25 22 20 19 17 15 15 15 13 13 13 12
5 5 6 8 8 8 8 8 9 11 13 14 15 18 20 22 24 25 25 25 26 28 30 31 31 32 32 33 35 35 36 38 40 40 42 47 50 51 51 52 53 54 54 55 56 56 55 55 52 50 49 48 47 44 43 43 44 43 41 42 41 38 36 36 36 32 28 25 25 27 30 30 28 25 22 20 19 17 16 17 17 15 14 14 13
4 4 5 7 6 6 6 6 6 6 8 10 12 14 16 18 20 23 24 26 28 30 33 34 34 34 35 37 39 40 41 42 43 44 47 50 52 52 52 51 51 52 54 56 58 58 58 59 58 55 53 52 51 48 46 47 47 45 44 45 43 40 39 39 37 33 30 27 25 28 31 30 27 25 22 19 18 16 16 18 19 16 15 14 13
7 6 5 4 4 3 2 2 3 4 4 6 8 11 13 14 17 18 20 23 27 30 33 36 38 39 40 42 44 46 48 48 48 49 50 52 53 55 55 53 51 51 54 58 61 61 61 61 61 58 56 55 54 51 50 50 49 46 47 48 46 43 43 41 37 33 30 27 26 28 31 29 26 23 22 19 17 16 17 19 18 16 14 14 13
11 10 9 8 8 6 4 3 2 2 3 4 6 7 9 11 14 16 18 22 25 27 30 34 38 40 42 44 46 48 50 51 53 55 56 56 56 56 57 57 55 52 55 60 64 63 59 60 61 60 58 57 56 53 53 53 51 49 49 48 46 45 44 40 36 32 28 26 29 31 31 28 25 22 20 19 17 17 18 18 16 14 14 14 13
15 14 12 11 11 11 10 9 8 6 5 3 1 0 2 5 6 7 9 10 12 13 14 17 22 28 32 36 40 45 48 50 52 55 58 60 61 60 60 61 59 56 58 63 66 63 58 57 59 59 57 57 56 55 56 55 52 51 51 48 45 46 43 39 37 33 27 27 31 32 29 27 24 21 19 18 17 18 19 17 15 14 14 14 13
12 13 14 13 13 14 15 14 13 13 12 11 10 10 9 8 8 9 10 11 12 11 10 9 9 12 15 19 24 30 38 45 50 54 56 58 61 62 63 63 60 59 62 66 66 63 60 60 59 59 57 56 55 56 58 57 54 53 52 49 48 46 42 39 38 32 27 30 33 30 27 26 24 21 19 18 18 20 19 17 16 15 14 14 14
9 10 11 12 13 14 15 14 14 13 13 13 12 12 12 13 13 13 14 14 14 13 14 14 15 16 17 18 20 22 24 29 36 44 50 54 55 56 60 65 66 64 66 68 67 64 63 63 63 62 60 58 58 59 58 55 54 53 50 49 49 47 43 41 38 31 29 33 33 28 26 26 23 20 19 18 19 20 19 16 16 15 14 14 13
10 9 9 9 10 10 11 12 12 11 12 12 11 11 12 13 13 13 13 14 14 14 14 16 19 21 22 21 21 22 22 23 25 28 36 46 52 53 57 65 70 69 68 67 66 64 65 66 65 64 63 62 61 60 55 52 51 50 49 48 48 44 40 39 37 34 34 35 31 27 27 25 21 19 19 19 20 20 18 16 16 15 15 16 15
9 8 8 8 7 7 7 8 10 10 11 10 10 10 11 10 11 11 11 12 13 14 14 17 19 22 23 23 23 24 25 27 29 30 29 34 44 50 55 62 69 71 71 69 68 67 68 68 67 65 65 65 63 57 51 49 49 49 48 48 46 40 35 34 35 37 38 33 28 28 28 24 19 19 20 19 20 19 17 16 16 14 16 18 17
7 6 5 6 6 5 5 5 7 7 8 7 8 9 10 9 8 8 9 11 12 12 13 15 17 18 21 23 25 28 31 33 33 33 32 32 35 40 48 58 66 70 69 68 69 68 66 65 65 64 63 61 58 54 50 48 49 49 48 46 42 38 35 34 35 38 37 30 26 27 26 22 19 21 21 20 19 18 17 17 16 15 15 16 15
7 6 5 5 7 6 5 4 4 4 4 5 5 7 8 10 9 8 7 9 10 11 11 12 14 16 19 22 26 30 34 37 36 32 30 28 28 29 35 47 58 63 63 63 64 64 62 60 60 59 55 52 50 49 48 48 49 48 46 43 40 38 38 37 37 38 35 28 25 25 24 21 21 22 21 19 18 17 17 17 16 15 15 14 13
6 6 6 6 8 7 5 4 3 2 3 4 4 4 6 9 10 9 8 9 11 12 11 10 11 13 15 18 23 26 27 30 32 28 22 20 21 21 24 31 39 48 56 60 60 59 59 59 56 53 48 46 45 46 46 47 47 45 43 40 39 39 39 38 37 35 32 28 24 23 23 22 22 22 21 19 19 18 17 16 15 15 15 15 14
7 7 6 6 6 6 4 4 4 3 2 3 3 4 4 7 8 9 9 10 12 13 13 11 10 11 12 14 19 20 18 20 25 24 19 17 17 18 20 23 29 39 48 55 60 61 59 54 49 45 43 43 42 42 43 44 43 41 39 38 39 39 37 36 35 34 32 29 26 24 23 23 23 22 20 19 19 18 17 16 15 15 15 15 14
7 8 7 6 6 5 4 3 3 4 3 3 4 4 4 5 7 8 9 10 11 13 13 12 10 9 9 11 14 15 14 14 18 20 19 18 21 23 17 7 22 34 38 42 49 53 50 45 41 40 39 39 38 37 38 39 40 39 38 38 38 37 35 34 34 33 31 29 27 25 23 23 23 21 20 20 19 17 16 16 16 15 15 15 14
8 8 8 7 7 7 6 4 3 3 4 5 7 6 5 5 6 7 8 8 9 10 11 10 9 8 9 10 11 11 11 11 12 14 16 19 25 32 35 31 27 28 29 31 35 38 39 38 37 36 35 35 35 36 36 36 37 37 36 36 36 35 34 33 33 32 30 28 26 24 23 23 23 21 19 19 19 17 16 16 16 16 16 15 14
10 10 10 9 8 8 7 6 5 4 4 5 6 6 5 4 4 6 7 7 7 7 8 8 7 7 7 8 9 10 10 10 10 10 11 14 18 23 27 27 25 22 21 24 28 31 33 34 34 34 34 34 34 34 35 35 34 33 33 34 35 34 34 33 32 30 28 26 25 24 23 23 22 20 19 18 18 17 16 16 16 16 16 15 14
13 13 13 12 11 11 11 10 8 7 6 6 6 6 5 5 5 5 6 6 6 6 7 7 7 7 6 7 8 9 10 10 10 9 7 7 11 16 18 19 20 20 19 19 22 24 26 28 30 30 31 32 32 32 33 33 33 33 33 34 34 33 33 32 29 27 26 25 24 22 22 21 20 19 18 17 16 16 15 15 15 15 16 15 14
15 15 14 14 14 14 14 13 11 11 11 11 10 8 6 6 5 5 6 7 7 7 6 6 6 6 6 6 7 8 9 11 10 7 5 4 6 9 12 14 16 17 18 19 21 23 24 26 27 27 27 29 32 33 32 33 33 33 32 32 32 32 31 29 27 25 24 23 21 20 19 19 17 17 17 16 15 14 15 15 14 15 15 15 14
18 17 16 15 15 14 14 13 13 13 13 13 13 12 10 8 7 6 6 6 6 5 5 5 5 5 6 8 9 9 9 10 9 4 1 3 5 7 9 12 15 16 16 19 21 23 24 25 26 26 26 28 30 31 31 31 31 31 31 32 32 31 29 27 25 24 23 22 20 18 18 17 16 15 15 15 14 14 14 14 14 15 15 14 14
20 20 19 18 16 15 14 14 14 14 14 14 14 13 11 10 9 9 8 7 6 5 5 5 5 4 5 7 9 10 10 9 8 6 2 4 8 9 10 12 14 16 16 17 19 21 23 24 25 26 27 28 28 29 30 31 31 30 31 31 30 28 26 25 24 23 22 21 19 18 17 16 14 14 14 14 14 14 14 14 14 14 15 15 14
22 21 21 20 19 17 16 15 15 15 14 15 15 15 14 13 13 12 11 10 9 8 6 6 6 5 5 5 6 8 8 4 5 8 7 5 8 10 10 11 14 16 18 18 19 20 22 23 24 25 26 27 28 29 29 30 30 30 30 29 28 27 26 24 23 22 20 19 18 17 15 14 13 13 13 13 14 14 15 15 15 15 15 15 14
23 22 21 21 20 18 17 17 16 15 15 15 15 16 16 16 16 16 16 15 14 12 11 11 11 11 11 10 8 6 6 4 2 6 9 8 8 10 11 11 12 14 17 19 20 21 21 22 23 24 25 26 26 27 28 29 30 30 30 29 28 26 25 23 22 20 18 16 15 15 14 13 13 12 13 13 13 14 15 16 16 15 15 14 14
Wind_Direction
227 228 227 227 227 228 228 228 229 231 232 232 233 234 235 235 235 234 235 234 233 233 231 230 230 230 229 230 231 232 232 233 234 234 234 234 234 232 227 222 224 226 225 228 230 229 225 223 225 226 225 225 225 224 227 230 226 221 219 218 218 221 222 220 226 232 228 225 225 225 232 235 243 250 232 227 246 246 239 248 254 261 264 261 275
227 228 228 228 229 229 230 230 230 232 233 234 234 236 237 236 236 236 236 235 234 233 232 231 230 229 229 229 230 231 232 233 233 234 235 236 235 233 231 228 227 227 226 228 231 231 228 225 224 226 225 226 228 227 228 232 232 229 228 225 218 219 226 224 222 227 230 231 227 223 235 237 232 243 238 223 234 239 235 247 256 261 264 262 271
229 229 230 230 230 230 231 232 233 233 234 235 235 236 237 237 236 236 236 236 236 235 233 231 230 229 229 230 230 230 231 233 233 233 235 236 236 234 234 233 232 229 227 229 230 231 231 228 226 227 226 227 229 229 229 232 234 233 232 232 224 219 228 232 225 222 224 229 225 217 231 238 227 238 242 227 230 241 241 249 258 263 266 273 280
227 231 232 231 231 231 231 232 233 234 234 235 235 236 237 238 237 236 235 236 237 236 234 233 231 230 229 231 231 231 232 232 234 234 234 235 235 235 235 235 234 232 230 230 231 232 233 231 229 229 228 228 229 230 231 232 235 235 234 237 234 223 226 236 237 230 226 228 227 215 217 229 232 239 245 239 240 247 249 254 263 266 268 278 287
224 230 234 233 233 233 232 232 233 234 234 235 235 236 236 237 238 237 235 235 236 237 236 234 233 231 230 231 231 232 232 233 234 236 235 234 234 234 235 235 234 233 232 231 233 234 235 235 234 233 232 230 229 230 232 233 235 236 235 238 240 233 229 237 244 242 236 232 231 226 225 231 239 244 247 246 245 249 253 254 259 265 269 277 283
222 226 232 234 234 235 235 234 234 234 235 235 235 236 236 236 238 239 237 235 236 237 237 235 233 232 231 231 232 233 233 234 235 236 237 236 234 234 235 236 235 234 233 232 233 234 236 237 237 237 236 234 232 232 233 233 234 236 236 237 240 240 236 238 244 247 246 240 233 234 237 237 238 243 248 247 243 243 245 248 257 266 273 281 285
220 223 229 232 234 236 237 237 237 237 237 237 236 236 236 235 236 238 239 238 237 237 238 237 235 233 232 232 233 233 235 235 235 237 238 236 235 234 234 236 236 235 234 233 233 235 235 236 238 239 238 236 235 234 234 235 235 235 236 237 238 240 238 239 243 246 247 243 236 235 236 235 234 235 243 248 244 241 243 245 253 261 268 282 292
218 223 226 230 234 237 238 238 238 238 238 239 238 238 237 236 235 236 238 239 238 238 238 238 237 235 233 232 233 233 235 235 235 237 238 235 234 235 235 235 236 236 235 234 233 235 235 235 236 238 239 237 236 235 236 237 237 235 235 235 236 237 235 234 239 243 240 237 236 234 231 234 236 231 235 245 246 246 250 248 247 254 266 281 293
218 223 226 231 236 238 238 238 239 239 239 239 240 239 239 238 237 235 236 239 239 239 239 239 239 237 235 233 233 234 235 235 235 236 236 235 235 236 236 235 236 237 237 235 234 235 235 235 236 237 239 238 236 236 237 239 240 238 237 235 234 235 233 231 233 236 234 231 232 234 231 231 234 229 231 241 244 243 244 246 255 268 275 281 289
220 225 228 232 235 236 237 239 240 240 240 240 240 240 240 240 239 237 237 239 240 239 240 240 239 238 237 234 233 233 235 235 235 236 236 237 238 238 237 236 235 236 238 236 235 234 234 235 237 238 240 240 238 237 236 240 241 239 239 238 235 235 234 231 230 230 229 228 229 233 232 231 233 230 228 234 236 233 234 246 261 272 275 281 286
220 227 229 232 233 235 238 240 241 241 241 240 240 240 240 240 240 240 239 239 241 241 241 240 240 240 239 237 234 233 235 235 235 235 237 238 238 238 238 237 235 235 237 238 236 235 235 235 236 239 240 240 239 238 236 238 240 238 237 238 236 236 235 233 231 228 227 227 228 231 232 234 234 229 227 232 232 229 232 245 261 267 269 275 276
222 228 230 231 232 235 238 240 241 241 242 241 241 241 241 240 241 241 241 240 241 242 242 242 242 241 241 240 237 234 234 236 235 235 236 237 238 238 238 238 237 236 237 238 238 237 236 235 236 238 240 239 238 238 237 237 239 238 237 237 237 237 236 235 232 228 227 228 228 228 231 234 233 230 232 234 227 227 236 246 261 269 268 268 270
222 228 229 230 233 237 238 239 241 241 242 241 241 241 241 242 242 242 242 242 241 242 243 243 243 243 242 241 241 238 236 236 236 235 236 237 237 236 237 239 239 238 237 238 239 239 238 237 237 237 239 238 237 238 238 237 238 238 237 237 237 237 237 237 234 229 228 228 228 228 230 234 236 235 238 237 232 237 244 247 255 263 265 269 272
219 227 230 231 234 237 238 240 241 241 241 241 240 241 243 243 243 243 243 243 242 241 241 239 241 243 241 237 239 240 238 237 237 236 236 237 236 235 236 238 239 239 238 238 239 240 240 239 238 238 239 238 237 237 239 238 238 239 237 236 237 238 240 240 237 231 227 226 227 229 233 240 242 240 243 248 250 249 246 240 242 250 261 272 280
217 225 231 233 235 237 239 241 241 240 240 241 241 242 244 245 245 244 243 243 244 243 241 239 240 242 237 230 234 238 238 237 237 237 236 236 236 235 234 236 238 239 239 239 239 240 241 240 240 239 239 239 237 237 239 240 239 239 239 239 240 241 243 243 240 236 231 227 228 231 235 241 241 240 245 254 256 253 249 246 246 255 269 279 289
218 224 230 234 235 236 238 240 240 240 240 241 241 242 244 245 245 244 243 243 244 245 244 243 242 237 230 230 234 235 235 237 237 237 237 237 237 235 233 233 236 238 239 239 239 240 240 240 240 239 239 239 238 237 238 241 241 241 241 241 241 242 245 247 245 240 234 228 226 228 231 235 234 238 247 252 253 254 255 254 257 265 276 284 291
224 227 231 234 236 237 238 239 240 239 239 240 242 243 244 244 244 244 244 243 242 243 244 245 242 236 232 235 235 233 234 237 237 236 238 239 238 236 233 232 234 236 238 239 239 239 239 238 238 238 238 238 237 236 237 238 240 241 241 240 239 237 239 244 244 238 230 226 224 224 226 231 235 241 247 249 251 255 254 251 257 260 261 270 276
229 230 233 235 236 237 238 239 239 239 240 241 243 243 244 244 244 244 244 243 242 241 241 242 243 240 236 233 232 233 235 236 237 237 238 239 239 238 234 232 233 235 236 238 239 238 238 237 236 236 236 237 236 235 235 235 237 239 238 234 231 228 225 231 237 233 225 222 222 223 225 230 236 242 246 246 248 250 247 241 239 234 233 245 253
231 232 233 234 236 237 238 239 240 241 242 242 243 243 243 244 244 245 245 245 243 240 236 234 237 239 237 232 231 234 235 234 236 238 238 238 239 238 235 232 232 234 235 236 237 237 237 238 236 234 234 236 237 234 233 233 233 235 233 226 223 224 218 218 226 227 222 218 218 221 224 228 234 238 242 243 243 244 242 237 230 226 232 240 243
231 232 233 233 235 237 239 240 242 243 243 242 243 244 244 244 244 245 245 244 242 239 236 233 233 235 235 233 232 233 233 230 232 237 239 238 237 238 236 233 233 234 234 233 234 236 236 236 237 235 233 234 236 234 230 230 230 232 230 222 221 222 218 218 223 223 219 218 218 221 224 227 233 237 237 237 239 239 238 236 232 232 236 236 236
234 234 234 234 236 238 241 243 244 244 244 244 244 245 244 244 244 245 244 241 239 238 237 234 232 232 232 232 233 234 234 231 231 234 238 238 237 236 235 235 234 234 233 233 234 236 236 235 236 236 233 232 233 232 228 226 227 230 229 226 223 218 213 217 223 222 217 217 218 218 219 222 227 230 231 233 235 235 236 236 232 233 236 231 229
236 237 236 236 237 240 242 243 243 244 244 244 245 245 243 243 244 245 243 239 238 241 241 234 230 231 232 233 234 235 235 235 234 234 236 238 238 235 234 235 236 235 234 233 233 235 236 236 236 236 234 231 230 229 227 224 224 227 229 230 228 220 213 212 216 215 210 210 212 210 209 212 214 217 222 227 228 228 230 230 227 225 224 223 233
234 238 239 238 238 239 242 244 244 244 244 245 245 245 245 244 244 244 242 239 238 241 241 235 232 233 233 234 236 237 237 237 235 235 237 239 240 239 236 235 236 236 236 235 235 235 236 236 236 236 235 232 228 226 224 223 223 225 228 229 226 223 218 214 211 204 199 204 209 208 206 206 205 209 216 216 213 215 214 214 223 229 227 235 252
229 235 238 239 237 237 239 242 244 246 246 246 245 244 246 245 244 244 244 240 234 233 233 233 233 233 231 233 236 237 238 238 237 238 240 241 241 243 242 239 237 236 237 237 237 237 236 235 235 236 235 230 225 223 222 221 221 222 226 225 222 221 217 211 207 200 197 204 208 207 206 205 203 208 212 204 200 208 210 209 223 236 240 249 263
230 233 236 238 236 235 236 240 244 246 246 246 245 244 245 243 242 243 243 237 232 232 231 231 233 234 233 234 236 235 237 239 239 240 243 244 243 244 245 241 237 236 237 236 234 234 234 232 232 234 233 228 222 220 219 219 218 220 223 221 217 216 211 205 202 199 200 205 207 205 207 207 203 207 210 200 200 212 215 215 227 238 245 259 270
224 226 230 232 232 231 232 236 241 245 246 245 245 246 246 244 243 243 239 231 230 232 232 232 234 235 235 235 236 235 235 237 239 241 244 244 243 244 244 240 235 235 237 236 231 228 228 228 228 230 229 224 220 217 215 215 215 217 216 213 210 209 206 203 202 202 202 205 205 203 208 207 202 205 209 206 208 216 218 221 232 237 242 257 268
219 220 220 222 225 227 227 226 229 235 240 239 238 241 243 241 240 240 235 231 230 231 232 233 234 235 237 238 238 237 237 237 238 241 245 245 242 241 242 239 233 230 232 234 231 226 222 221 221 224 224 220 217 215 214 213 213 212 210 206 204 203 202 204 207 206 202 200 200 202 207 204 201 205 210 211 212 216 219 225 228 226 230 241 249
210 214 213 209 212 217 218 218 218 221 227 230 230 234 237 237 238 238 235 233 232 231 235 238 237 238 239 240 241 241 240 238 237 238 244 247 245 241 239 237 233 228 227 229 228 225 222 218 216 218 219 216 212 211 210 210 210 208 206 202 198 196 197 201 204 202 195 192 196 202 203 201 204 209 211 210 210 212 218 225 220 211 214 226 238
179 193 200 198 204 210 210 215 220 219 222 228 230 233 234 234 237 240 240 240 239 237 238 241 242 243 244 243 243 243 243 244 244 242 244 249 250 248 245 242 239 236 233 227 222 220 219 215 212 213 214 211 209 209 208 205 203 202 201 199 195 192 193 195 196 195 190 189 194 199 200 203 209 210 207 206 206 207 216 224 220 216 220 229 241
163 173 175 175 187 196 191 197 214 219 222 227 233 238 239 237 237 239 242 245 247 247 247 248 248 248 248 248 248 248 250 253 254 252 252 255 258 259 258 254 251 248 241 228 219 217 216 213 211 211 210 208 207 207 205 202 199 197 195 194 192 192 193 195 195 194 191 190 194 200 204 207 209 205 201 200 200 204 217 226 226 230 236 237 242
159 176 186 189 196 195 183 186 204 218 222 227 233 239 245 246 245 245 246 247 249 251 254 257 257 256 256 257 256 256 257 259 259 257 258 261 262 264 264 262 258 254 245 230 219 216 215 213 211 210 207 205 205 205 202 200 198 195 192 191 191 193 196 197 195 193 191 190 194 201 206 208 206 201 198 196 196 205 221 227 227 236 243 238 237
145 147 149 164 178 186 188 198 221 230 235 244 243 240 245 251 251 249 249 251 252 252 252 254 255 256 258 259 259 259 259 260 259 259 259 260 262 263 264 263 259 255 248 234 221 215 214 213 211 210 207 204 204 203 201 198 197 194 192 191 192 195 199 199 196 191 189 189 193 199 204 204 201 199 197 196 197 206 220 225 225 232 238 233 231
106 107 106 106 109 113 120 126 140 193 221 247 252 251 257 262 262 262 262 262 264 264 261 259 258 259 260 260 261 262 262 261 260 259 258 258 259 260 261 261 259 255 248 235 220 212 211 212 211 210 207 204 202 200 197 196 195 193 193 194 196 198 200 199 194 189 187 190 194 197 201 200 196 195 197 197 201 209 218 221 219 220 224 226 228
84 86 87 85 82 80 79 79 77 77 81 84 95 219 268 274 280 288 293 297 300 297 288 278 272 270 269 268 267 265 264 263 262 261 259 259 258 258 259 260 256 252 246 235 221 212 209 209 209 209 206 203 200 196 194 193 192 192 193 194 196 198 198 196 193 189 187 191 194 196 198 197 193 193 196 199 206 215 218 217 213 212 217 221 225
78 77 76 74 72 71 70 69 67 65 64 62 62 66 66 59 52 44 33 23 16 10 6 354 330 310 300 293 286 276 269 264 262 260 259 259 258 257 257 254 247 242 237 228 217 211 209 208 207 207 205 202 198 194 192 191 191 193 193 192 192 194 193 193 194 193 190 192 194 194 195 194 193 194 198 202 212 218 216 212 211 212 215 219 223
77 72 72 72 71 71 71 69 65 60 58 58 58 60 61 59 51 43 37 30 21 12 7 1 354 348 341 333 325 315 300 285 273 265 260 257 256 257 255 249 242 238 233 222 210 206 208 208 206 205 205 201 197 193 191 190 191 192 193 192 192 192 191 193 195 193 191 194 194 192 193 194 193 196 201 208 215 217 213 209 211 212 214 218 220
91 85 80 76 71 71 73 73 69 63 58 58 57 56 55 51 45 39 34 24 15 8 3 356 354 355 355 348 338 332 329 325 317 300 277 262 255 255 255 250 243 238 230 218 205 201 204 206 204 203 200 197 193 189 189 191 192 192 192 191 190 189 190 193 193 192 193 194 192 191 193 194 193 197 206 212 214 213 209 208 209 210 212 216 216
89 90 88 80 71 67 69 72 73 70 66 60 53 52 52 44 35 34 27 13 7 7 2 357 356 0 4 2 354 346 341 339 338 333 312 280 260 252 250 247 241 235 226 213 203 200 202 203 201 198 195 192 189 187 188 191 193 193 191 189 188 189 192 192 192 193 194 192 190 193 197 194 194 203 209 208 207 206 204 206 206 206 211 217 221
64 75 92 88 75 65 62 66 66 67 69 64 49 42 41 32 23 22 14 5 3 2 359 358 0 4 11 13 9 4 0 356 350 341 326 305 283 267 255 244 236 230 221 209 200 198 198 197 195 191 188 186 185 185 185 186 188 190 188 186 186 190 193 191 192 194 194 189 189 196 198 194 196 203 205 202 202 203 202 203 203 203 208 216 221
52 48 51 64 68 60 48 50 52 44 48 53 42 28 23 20 18 14 2 353 349 346 349 356 360 6 16 21 19 15 12 6 358 344 327 318 310 292 265 244 233 226 215 202 194 191 191 189 185 181 178 178 181 183 182 181 183 185 185 184 185 188 189 191 194 195 192 187 190 196 197 193 196 200 201 201 202 202 199 200 201 202 207 212 214
53 45 41 56 70 63 43 38 46 31 18 19 10 1 3 8 10 5 352 340 331 327 332 344 353 1 12 17 19 21 20 11 4 357 349 344 336 309 274 251 237 224 208 194 187 185 184 180 175 172 173 177 181 181 179 178 180 182 182 184 186 186 187 191 194 193 189 187 190 194 195 197 201 203 201 200 199 197 196 198 200 203 208 211 212
47 46 41 46 57 56 46 35 24 6 358 355 337 325 340 356 357 352 344 336 325 318 317 322 335 351 4 10 18 28 31 20 17 19 20 13 354 324 290 258 230 211 196 184 178 176 174 170 165 165 170 175 180 181 180 180 181 182 182 184 185 185 188 191 192 191 191 192 195 198 201 205 208 205 200 196 195 195 196 198 201 205 209 211 212
46 47 47 49 51 48 46 43 18 353 343 338 319 305 316 339 343 342 340 335 327 322 319 319 324 336 349 359 11 26 33 30 31 35 35 35 38 37 38 102 167 171 167 161 160 162 160 157 158 163 167 171 177 182 183 183 183 181 180 182 184 187 190 192 192 194 196 198 202 206 207 208 207 202 195 194 195 196 198 200 201 205 209 210 210
48 48 50 57 59 47 38 37 26 2 347 340 332 324 323 329 334 336 336 332 326 322 320 319 323 333 342 345 352 8 22 28 38 48 48 46 52 57 62 75 100 121 129 134 143 149 151 153 157 163 165 169 176 180 180 181 181 179 180 184 188 190 193 194 196 198 199 200 205 209 207 205 204 199 194 195 197 195 198 203 204 205 209 211 211
49 47 46 48 49 45 41 39 31 16 356 341 337 339 339 333 333 337 335 331 327 323 320 320 323 328 336 340 341 349 359 4 15 37 52 57 62 68 73 80 89 102 121 140 152 157 156 155 158 162 165 170 174 176 176 177 178 179 184 189 192 193 195 197 199 201 201 203 208 208 202 200 201 198 194 197 199 197 199 205 207 207 210 211 211
51 50 48 47 45 43 42 40 33 22 10 357 349 347 343 337 342 348 343 335 331 327 321 321 325 326 327 332 336 338 337 339 345 358 20 57 83 90 95 102 113 122 133 144 154 159 158 157 158 161 165 167 168 169 171 175 179 184 190 194 194 195 197 199 200 202 203 205 206 203 197 196 198 197 194 195 199 200 202 206 209 210 212 213 212
55 54 53 51 48 44 41 39 36 32 26 19 13 6 354 344 346 353 351 347 346 342 329 316 314 317 316 318 324 328 327 327 332 345 6 46 95 112 117 123 131 138 142 147 154 160 162 159 157 158 161 162 164 168 174 180 184 188 192 195 195 196 198 200 201 203 205 203 198 193 191 192 193 195 195 196 200 204 206 208 211 212 212 214 213
60 57 55 52 49 45 41 38 36 34 30 26 22 17 12 8 7 8 5 357 345 336 325 315 305 296 292 297 303 309 315 317 317 321 34 91 107 120 126 130 134 138 143 148 152 155 155 153 153 156 161 164 168 173 179 184 187 189 192 194 196 197 200 201 201 201 201 196 189 185 187 189 190 194 198 200 203 208 210 211 214 213 212 213 214
65 63 62 59 54 47 41 37 35 34 33 32 29 25 23 22 17 13 12 9 1 350 343 338 328 307 294 294 295 297 301 299 285 269 232 143 136 134 129 129 135 140 142 143 145 147 149 152 157 162 168 172 176 179 182 185 188 191 192 194 196 199 201 202 200 198 196 190 183 182 185 187 189 195 200 203 208 214 215 215 215 214 212 213 215
65 64 64 63 60 54 47 42 39 36 35 35 34 34 37 41 39 33 28 24 23 28 31 29 29 33 26 356 322 311 314 300 235 226 223 184 150 141 132 131 140 146 147 147 150 154 158 162 167 173 177 180 182 183 185 188 189 190 191 195 198 200 201 201 200 198 195 188 182 183 187 190 193 199 204 209 214 218 218 216 215 212 212 213 215
62 61 61 61 59 57 53 48 45 42 40 39 38 37 39 43 47 49 49 45 42 47 53 57 61 63 56 42 26 14 18 44 145 201 207 192 162 144 139 141 148 153 155 158 162 166 169 173 178 183 185 185 185 186 188 190 190 191 195 199 200 200 200 198 197 196 194 188 184 187 191 195 201 206 210 215 218 218 216 214 211 208 210 214 216